Change the Weather History Date:

Tuesday, April 9, 2013

  Actual Average Record
Temperature  
Mean Temperature 64 °F -  
Max Temperature 73 °F 53 °F 77 °F (2001)
Min Temperature 55 °F 36 °F 17 °F (1997)
Degree Days  
Heating Degree Days 1    
Growing Degree Days 14 (Base 50)    
Moisture  
Dew Point 46 °F    
Average Humidity 55    
Maximum Humidity 72    
Minimum Humidity 38    
Precipitation  
Precipitation 0.00 in - - ()
Sea Level Pressure  
Sea Level Pressure 30.20 in    
Wind  
Wind Speed 13 mph (West)    
Max Wind Speed 17 mph    
Max Gust Speed 24 mph    
Visibility 10 miles    
Events      
Averages and records for this station are not official NWS values.
T = Trace of Precipitation, MM = Missing Value Source: NWS Daily Summary

Daily Weather History Graph

Daily Weather History Graph

Search for Another Location

Airport or City:

Trip Planner

Search our weather history database for the weather conditions in past years. The results will help you decide how hot, cold, wet, or windy it might be!

Date:

Astronomy

Apr. 09, 2013 Rise Set
Actual Time 6:52 AM EDT 7:49 PM EDT
Civil Twilight 6:25 AM EDT 8:16 PM EDT
Nautical Twilight 5:53 AM EDT 8:48 PM EDT
Astronomical Twilight 5:20 AM EDT 9:21 PM EDT
Moon 6:13 AM EDT (4/9) 7:23 PM EDT (4/9)
Length of Visible Light 13h 51m
Length of Day
12h 57m
Waning Crescent, 1% of the Moon is Illuminated
Apr 9
Waning Crescent
Apr 10
New
Apr 18
First Quarter
Apr 25
Full
May 2
Last Quarter

Hourly Weather History & Observations

Time (EDT) Temp. Dew Point Humidity Pressure Visibility Wind Dir Wind Speed Gust Speed Precip Events Conditions
12:15 AM 57.2 °F 46.4 °F 67% 30.18 in 10.0 mi WSW 12.7 mph - N/A   Overcast
12:35 AM 57.2 °F 46.4 °F 67% 30.18 in 10.0 mi WSW 12.7 mph - N/A   Overcast
12:55 AM 57.2 °F 46.4 °F 67% 30.18 in 10.0 mi WSW 12.7 mph - N/A   Mostly Cloudy
1:15 AM 57.2 °F 46.4 °F 67% 30.18 in 10.0 mi WSW 12.7 mph - N/A   Scattered Clouds
1:35 AM 55.4 °F 46.4 °F 72% 30.17 in 10.0 mi WSW 11.5 mph - N/A   Scattered Clouds
1:55 AM 55.4 °F 46.4 °F 72% 30.18 in 10.0 mi WSW 11.5 mph - N/A   Scattered Clouds
2:15 AM 57.2 °F 46.4 °F 67% 30.18 in 10.0 mi WSW 12.7 mph - N/A   Mostly Cloudy
2:35 AM 57.2 °F 46.4 °F 67% 30.17 in 10.0 mi West 13.8 mph 18.4 mph N/A   Overcast
2:55 AM 57.2 °F 46.4 °F 67% 30.17 in 10.0 mi West 12.7 mph - N/A   Mostly Cloudy
3:15 AM 57.2 °F 46.4 °F 67% 30.16 in 10.0 mi West 13.8 mph 20.7 mph N/A   Scattered Clouds
3:35 AM 57.2 °F 46.4 °F 67% 30.16 in 10.0 mi West 15.0 mph 21.9 mph N/A   Clear
3:55 AM 57.2 °F 44.6 °F 63% 30.17 in 10.0 mi West 17.3 mph 21.9 mph N/A   Clear
4:15 AM 57.2 °F 44.6 °F 63% 30.17 in 10.0 mi West 13.8 mph 24.2 mph N/A   Clear
4:35 AM 57.2 °F 44.6 °F 63% 30.17 in 10.0 mi West 15.0 mph 19.6 mph N/A   Clear
4:55 AM 55.4 °F 44.6 °F 67% 30.18 in 10.0 mi West 15.0 mph - N/A   Clear
5:15 AM 55.4 °F 44.6 °F 67% 30.18 in 10.0 mi West 15.0 mph 21.9 mph N/A   Clear
5:35 AM 55.4 °F 44.6 °F 67% 30.19 in 10.0 mi West 16.1 mph 20.7 mph N/A   Clear
5:55 AM 55.4 °F 46.4 °F 72% 30.20 in 10.0 mi West 15.0 mph - N/A   Clear
6:15 AM 55.4 °F 46.4 °F 72% 30.20 in 10.0 mi West 16.1 mph 21.9 mph N/A   Clear
6:35 AM 55.4 °F 46.4 °F 72% 30.21 in 10.0 mi West 16.1 mph 20.7 mph N/A   Scattered Clouds
6:55 AM 55.4 °F 46.4 °F 72% 30.21 in 10.0 mi West 16.1 mph - N/A   Clear
7:15 AM 55.4 °F 46.4 °F 72% 30.22 in 10.0 mi West 17.3 mph - N/A   Clear
7:35 AM 55.4 °F 46.4 °F 72% 30.22 in 10.0 mi West 17.3 mph - N/A   Clear
7:55 AM 55.4 °F 46.4 °F 72% 30.23 in 10.0 mi West 13.8 mph 18.4 mph N/A   Clear
8:15 AM 55.4 °F 46.4 °F 72% 30.24 in 10.0 mi West 12.7 mph - N/A   Clear
8:35 AM 57.2 °F 48.2 °F 72% 30.24 in 10.0 mi West 12.7 mph - N/A   Clear
8:55 AM 57.2 °F 48.2 °F 72% 30.24 in 10.0 mi West 11.5 mph - N/A   Clear
9:15 AM 59.0 °F 48.2 °F 67% 30.24 in 10.0 mi West 11.5 mph 17.3 mph N/A   Clear
9:35 AM 60.8 °F 48.2 °F 63% 30.25 in 10.0 mi West 11.5 mph - N/A   Clear
9:55 AM 60.8 °F 48.2 °F 63% 30.25 in 10.0 mi West 11.5 mph - N/A   Clear
10:15 AM 60.8 °F 50.0 °F 68% 30.25 in 10.0 mi West 13.8 mph 18.4 mph N/A   Clear
10:35 AM 62.6 °F 50.0 °F 63% 30.25 in 10.0 mi WNW 13.8 mph - N/A   Clear
10:55 AM 62.6 °F 50.0 °F 63% 30.26 in 10.0 mi West 11.5 mph 16.1 mph N/A   Clear
11:15 AM 64.4 °F 50.0 °F 59% 30.26 in 10.0 mi West 10.4 mph - N/A   Clear
11:35 AM 66.2 °F 50.0 °F 56% 30.26 in 10.0 mi West 12.7 mph - N/A   Scattered Clouds
11:55 AM 66.2 °F 50.0 °F 56% 30.27 in 10.0 mi West 10.4 mph 17.3 mph N/A   Scattered Clouds
12:15 PM 66.2 °F 50.0 °F 56% 30.26 in 10.0 mi West 12.7 mph 19.6 mph N/A   Scattered Clouds
12:35 PM 68.0 °F 50.0 °F 52% 30.26 in 10.0 mi West 6.9 mph - N/A   Scattered Clouds
12:55 PM 69.8 °F 48.2 °F 46% 30.25 in 10.0 mi WSW 8.1 mph 18.4 mph N/A   Scattered Clouds
1:15 PM 69.8 °F 48.2 °F 46% 30.24 in 10.0 mi WNW 8.1 mph 16.1 mph N/A   Scattered Clouds
1:35 PM 69.8 °F 48.2 °F 46% 30.24 in 10.0 mi WNW 4.6 mph - N/A   Scattered Clouds
1:55 PM 69.8 °F 48.2 °F 46% 30.24 in 10.0 mi West 5.8 mph - N/A   Clear
2:15 PM 71.6 °F 48.2 °F 43% 30.23 in 10.0 mi West 11.5 mph 20.7 mph N/A   Scattered Clouds
2:35 PM 71.6 °F 48.2 °F 43% 30.22 in 10.0 mi WSW 11.5 mph 16.1 mph N/A   Scattered Clouds
2:55 PM 71.6 °F 48.2 °F 43% 30.21 in 10.0 mi West 10.4 mph 16.1 mph N/A   Clear
3:15 PM 71.6 °F 48.2 °F 43% 30.21 in 10.0 mi SW 11.5 mph 17.3 mph N/A   Clear
3:35 PM 71.6 °F 48.2 °F 43% 30.20 in 10.0 mi SSW 11.5 mph 19.6 mph N/A   Clear
3:55 PM 73.4 °F 48.2 °F 41% 30.19 in 10.0 mi West 15.0 mph 19.6 mph N/A   Clear
4:15 PM 73.4 °F 46.4 °F 38% 30.18 in 10.0 mi SW 9.2 mph 16.1 mph N/A   Clear
4:35 PM 73.4 °F 48.2 °F 41% 30.18 in 10.0 mi WSW 16.1 mph 23.0 mph N/A   Clear
4:55 PM 71.6 °F 48.2 °F 43% 30.19 in 10.0 mi WSW 11.5 mph 17.3 mph N/A   Clear
5:15 PM 71.6 °F 46.4 °F 41% 30.18 in 10.0 mi WSW 12.7 mph 17.3 mph N/A   Clear
5:35 PM 71.6 °F 48.2 °F 43% 30.19 in 10.0 mi West 9.2 mph - N/A   Clear
5:55 PM 71.6 °F 48.2 °F 43% 30.19 in 10.0 mi West 10.4 mph - N/A   Clear
6:15 PM 69.8 °F 46.4 °F 43% 30.19 in 10.0 mi WSW 9.2 mph 12.7 mph N/A   Clear
6:35 PM 69.8 °F 46.4 °F 43% 30.18 in 10.0 mi WSW 9.2 mph - N/A   Clear
6:55 PM 69.8 °F 46.4 °F 43% 30.17 in 10.0 mi WSW 5.8 mph - N/A   Clear
7:15 PM 69.8 °F 46.4 °F 43% 30.17 in 10.0 mi SW 5.8 mph - N/A   Clear
7:35 PM 69.8 °F 42.8 °F 38% 30.17 in 10.0 mi SW 10.4 mph 16.1 mph N/A   Scattered Clouds
7:55 PM 66.2 °F 42.8 °F 43% 30.17 in 10.0 mi WSW 11.5 mph - N/A   Scattered Clouds
8:15 PM 66.2 °F 42.8 °F 43% 30.18 in 10.0 mi WSW 12.7 mph 18.4 mph N/A   Mostly Cloudy
8:35 PM 68.0 °F 42.8 °F 40% 30.18 in 10.0 mi WSW 12.7 mph 18.4 mph N/A   Mostly Cloudy
8:55 PM 66.2 °F 41.0 °F 40% 30.19 in 10.0 mi WSW 13.8 mph - N/A   Scattered Clouds
9:15 PM 66.2 °F 41.0 °F 40% 30.20 in 10.0 mi WSW 13.8 mph - N/A   Clear
9:35 PM 64.4 °F 39.2 °F 40% 30.20 in 10.0 mi WSW 13.8 mph - N/A   Clear
9:55 PM 64.4 °F 39.2 °F 40% 30.19 in 10.0 mi WSW 12.7 mph - N/A   Clear
10:55 PM 64.4 °F 39.2 °F 40% 30.18 in 10.0 mi WSW 15.0 mph - N/A   Clear
11:15 PM 64.4 °F 41.0 °F 42% 30.18 in 10.0 mi WSW 13.8 mph - N/A   Clear
11:35 PM 64.4 °F 41.0 °F 42% 30.17 in 10.0 mi SW 12.7 mph - N/A   Clear
11:55 PM 64.4 °F 42.8 °F 45% 30.16 in 10.0 mi WSW 11.5 mph 18.4 mph N/A   Clear